Regional Weather Roundup
Issued by NWS

Home | Current Version | Previous Version | Text Only | Print | Product List | Glossary On
Versions: 1 2 3 4 5 6 7 8 9 10 11 12 13 14 15 16 17 18 19 20 21 22 23 24 25 26 27 28 29 30 31 32 33 34 35 36 37 38 39 40 41 42 43 44 45 46 47 48 49 50
000
ASUS42 KTBW 281117
RWRFL
FLORIDA REGIONAL WEATHER ROUNDUP
NATIONAL WEATHER SERVICE TAMPA BAY RUSKIN FL
700 AM EDT TUE MAR 28 2017

NOTE: "FAIR" INDICATES FEW OR NO CLOUDS BELOW 12,000 FEET WITH NO
SIGNIFICANT WEATHER AND/OR OBSTRUCTIONS TO VISIBILITY.

FLZ001>010-012>015-112-114-115-281200-
PANHANDLE FLORIDA

CITY           SKY/WX    TMP DP  RH WIND       PRES   REMARKS
PENSACOLA      MOCLDY    72  68  87 SW6       30.00R
PENSACOLA NAS  MOCLDY    70  68  93 SW6       29.99R
MILTON NAS     MOCLDY    65  65 100 SW5       30.00  FOG
CRESTVIEW      CLOUDY    67  66  97 CALM      30.02R
DUKE FIELD     FAIR      68  67  98 S5        29.99R
VALPARAISO     MOCLDY    69  68  97 CALM      30.00R
MARY ESTHER    PTCLDY    68  66  94 CALM      29.99R
TRI COUNTY     CLOUDY    68  67  96 SW3       30.01S
PANAMA CITY    FOG       62  61  96 CALM      30.00R VSB 1
TYNDALL AFB    CLOUDY    67  67  99 SW5       30.01R
APALACHICOLA   FOG       60  60 100 CALM      30.01R VSB 1/2

STATION/POSITION SKY/WX   TEMP    WIND        PRES    WAVE   SWELL
                          AIR SEA DIR/SP/G            HT/PER HT/PER
                          (F)     (DEG/KT/KT) (MB)    (FT/S) (FT/S)
30.1N   87.6W              70 70  180/  6/  6 1015.4R   2/ 5   2/ 5
29.2N   88.2W              73 73  180/ 10/ 12 1015.4R   3/ 5   2/ 5
28.8N   86.0W              72 71              1016.3R   2/ 5   2/ 5
PANAMA CITY BEAC           69 72  150/  3/  4 1016.3R
TOWER C                    67     210/  2/  3 1017.2R
28.5N   84.5W              69 70  120/  8/  8 1016.4R   1/ 5   2/ 5

$$
FLZ011-016>038-118-127-128-134-139-239-281200-
NORTH FLORIDA

CITY           SKY/WX    TMP DP  RH WIND       PRES   REMARKS
MARIANNA       MOCLDY    66  65  96 SW3       30.00S
TALLAHASSEE    FOG       59  59 100 CALM      30.03R VSB 1/4
PERRY          FOG       62  61  97 CALM      30.05R VSB 1/4
CROSS CITY     PTCLDY    55  54  94 CALM      30.04R
LAKE CITY      FAIR      55  55 100 CALM      30.04R
GAINESVILLE    CLEAR     56  55  97 CALM      30.04R
WILLISTON      CLEAR     57  57 100 CALM      30.05R
PALATKA        FAIR      54  54 100 CALM      30.05R FOG
MAYPORT NAS    MOCLDY    64  61  90 SW3       30.04R
JACKSONVILLE   MOCLDY    61  60  97 CALM      30.03R
FERNANDINA BEA CLOUDY    66  63  88 SW3       30.03R
ST AUGUSTINE   CLEAR     61  59  93 CALM      30.06R

STATION/POSITION SKY/WX   TEMP    WIND        PRES    WAVE   SWELL
                          AIR SEA DIR/SP/G            HT/PER HT/PER
                          (F)     (DEG/KT/KT) (MB)    (FT/S) (FT/S)
SHELL POINT      NOT AVBL
KEATON BEACH               62      80/  4/  4 1016.9R
CEDAR KEY                  69     120/  4/  5 1017.4R
FERNANDINA                 66 69  210/  3/  4 1017.8R
30.7N   81.3W                 66                N/A     4/10   2/11
MAYPORT                    65 69  260/  4/  4 1017.4R
31.4N   80.9W              65 63  210/  6/  6 1016.2R   4/10   3/10
ST AUGUSTINE               63 68  290/  3/  4 1018.3R

$$
FLZ040-043>046-052-053-057-058-063-144-281200-
INTERIOR CENTRAL FLORIDA

CITY           SKY/WX    TMP DP  RH WIND       PRES   REMARKS
OCALA          CLEAR     55  52  88 CALM      30.05R
THE VILLAGES     N/A     59  59 100 CALM      29.96R
LEESBURG       CLEAR     61  59  93 CALM      30.05R FOG
SANFORD        CLEAR     61  59  93 CALM      30.04R
ORLANDO EXEC   CLEAR     62  61  96 CALM      30.05R
ORLANDO INTL   CLEAR     62  60  93 CALM      30.05R
KISSIMMEE      CLEAR     60  59  96 CALM      30.06R
WINTER HAVEN   CLEAR     62  59  90 CALM      30.05R
LAKELAND       CLEAR     59  57  94 CALM      30.05R
BARTOW         FAIR      55  55 100 CALM      30.05R
OKEECHOBEE     PTCLDY   N/A N/A N/A CALM      30.04R

$$
FLZ041-047-054-059-064-141-147-281200-
EAST CENTRAL FLORIDA

CITY           SKY/WX    TMP DP  RH WIND       PRES   REMARKS
ORMOND BEACH   CLEAR     55  55 100 CALM      30.05
DAYTONA BEACH  PTCLDY    57  57 100 W3        30.05R
DELAND         CLEAR     57  55  94 CALM      30.04S
NEW SMYRNA BEA CLEAR     59  59 100 CALM      30.05
JFK SPACE CTR  CLEAR     57  57 100 NW3       30.03R
TITUSVILLE     SMOKE     57  55  94 VRB3      30.04  VSB 1
CAPE CANAVERAL CLEAR     58  53  83 W5        30.03R
PATRICK AFB    CLEAR     67  65  92 W6        30.03R
MELBOURNE      CLEAR     59  57  93 W7        30.03R
VERO BEACH     CLEAR     58  56  93 CALM      30.03R FOG
FT PIERCE      CLEAR     58  58 100 CALM      30.03R
STUART         PTCLDY    66  64  94 CALM      30.03S

STATION/POSITION SKY/WX   TEMP    WIND        PRES    WAVE   SWELL
                          AIR SEA DIR/SP/G            HT/PER HT/PER
                          (F)     (DEG/KT/KT) (MB)    (FT/S) (FT/S)
TRIDENT PIER               64 72  330/  1/  3 1018.1R
28.4N   80.5W                 72                N/A     2/11   2/11
27.5N   80.2W                 73                N/A     3/11   2/11

$$
FLZ050-056-061-142-242-148-248-149-249-151-251-155-255-
160-260-281200-
WEST CENTRAL FLORIDA

CITY           SKY/WX    TMP DP  RH WIND       PRES   REMARKS
CRYSTAL RIVER  FAIR      54  52  94 CALM      30.05R
INVERNESS      FAIR      55  55 100 CALM      30.06R
BROOKSVILLE    CLEAR     56  55  97 CALM      30.06R
CLEARWATER AIR FAIR      63  61  94 CALM      30.04R
ST PETE CLEARW CLEAR     63  60  90 CALM      30.04R
TAMPA INTL     CLEAR     68  61  78 CALM      30.04R
TAMPA EXEC     CLEAR     57  55  94 CALM      30.05R
PLANT CITY     CLEAR     59  59 100 CALM      30.06R
MACDILL AFB    CLEAR     60  60  98 CALM      30.03R
PETER O KNIGHT MOCLDY    64  63  94 E3        30.04R
ST PETERSBURG  CLEAR     67  61  81 S5        30.02R
SARASOTA       CLEAR     61  57  87 E3        30.01R
VENICE           N/A     61  61 100 E5        30.03R

STATION/POSITION SKY/WX   TEMP    WIND        PRES    WAVE   SWELL
                          AIR SEA DIR/SP/G            HT/PER HT/PER
                          (F)     (DEG/KT/KT) (MB)    (FT/S) (FT/S)
27.3N   84.2W                 72                N/A     2/ 4
CLEARWATER BEACH           68 71  110/  4/  5 1017.2R
MIDDLE TAMPA BAY           65     140/  4/  5 1017.1R
VENICE                     63 71   70/  7/  8 1016.4R

$$
FLZ066-069-070-075>078-162-262-165-265-281200-
SOUTHWEST FLORIDA AND KEYS

CITY           SKY/WX    TMP DP  RH WIND       PRES   REMARKS
PUNTA GORDA    CLEAR     54  54 100 CALM      30.04R
FT MYERS       PTCLDY    64  59  83 E3        30.02R
SOUTHWEST INTL PTCLDY    59  55  87 CALM      30.03R
NAPLES         CLEAR     63  59  87 CALM      30.02R
IMMOKALEE      FAIR      52  52 100 CALM      30.02R
MARATHON       CLEAR     74  67  78 NE7       30.00R
KEY WEST NAS   PTCLDY    71  65  81 NE7       30.00R
KEY WEST INTL  CLEAR     73  66  78 NE6       30.00R

STATION/POSITION SKY/WX   TEMP    WIND        PRES    WAVE   SWELL
                          AIR SEA DIR/SP/G            HT/PER HT/PER
                          (F)     (DEG/KT/KT) (MB)    (FT/S) (FT/S)
NAPLES                        73              1016.4R
26.0N   85.6W              75 78  100/ 10/ 12 1016.0R   3/ 7   2/ 7
DRY TORTUGAS               73      80/ 16/ 17 1015.6R
SAND KEY                   74      70/ 14/ 16 1016.2R
LONG KEY                   73 75   30/  8/  9 1016.3R
MOLASSES REEF              75 78  110/  1/  2 1016.4R

$$
FLZ067-068-071>074-168-172>174-281200-
SOUTHEAST FLORIDA

CITY           SKY/WX    TMP DP  RH WIND       PRES   REMARKS
W PALM BEACH   PTCLDY    62  61  96 CALM      30.02R
BOCA RATON     PTCLDY    64  61  88 NW3       30.01
FT LAUDER-EXEC PTCLDY    67  61  81 W3        30.01R
FT LAUDERDALE  PTCLDY    66  62  87 NW5       30.01R
POMPANO BEACH  MOCLDY    67  63  87 W3        30.01R
PEMBROKE PINES PTCLDY    64  62  93 N3        30.03R
OPA LOCKA      CLEAR    N/A N/A N/A N5        30.02R
MIAMI          PTCLDY    67  62  84 CALM      30.01R
WEST KENDALL   CLEAR     62  60  93 CALM      30.02R
HOMESTEAD      CLEAR     64  61  90 NW3       30.01R

STATION/POSITION SKY/WX   TEMP    WIND        PRES    WAVE   SWELL
                          AIR SEA DIR/SP/G            HT/PER HT/PER
                          (F)     (DEG/KT/KT) (MB)    (FT/S) (FT/S)
PORT EVERGLADES            70     320/  4/  5 1016.0R
VIRGINIA KEY               70     350/  3/  6 1016.7R
LAKE WORTH                        310/  4/  5   N/A
FOWEY ROCKS                74 76  320/  3/  4 1016.9R
SETTLEMENT POINT           71     100/  6/  7 1016.7R

$$




USA.gov is the U.S. government's official web portal to all federal, state and local government web resources and services.